カタログに戻る

TERRA

運用中科学SSO
NORAD 25994·PAYLOAD·🇺🇸 United States

打ち上げ Dec 18, 1999 から Vandenberg Space Force Base

Loading…

次のパス (今後24時間)

TLE

最新Source: Space-Track

元期: Sep 14, 2026, 14:37 UTC

1 25994U 99068A   26257.60956172  .00000236  00000-0  56998-4 0  9991
2 25994  97.9370 303.5733 0001378 344.1644 176.5310 14.61160045422666

AllMySatでTERRAをリアルタイム追跡

Download on the App Store